EA3ANS-1 Weather Reports


Display with metric or nautical units.
time (UTC)temp
F
wind
direction
speed
MPH
gust
MPH
rain 1hr
in
rain 24hr
in
rain mn
in
humidity
%
barometer
mb
20260507202325 59 62 3.0 2.0 0.00 0.00 0.00 1013.7
20260507201328 59 4 0.0 0.0 0.00 0.00 0.00 1013.6
20260507200319 60 32 3.0 3.0 0.00 0.00 0.00 1013.5
20260507195318 60 49 3.0 3.0 0.00 0.00 0.00 1013.5
20260507194317 61 83 1.0 2.0 0.00 0.00 0.00 1013.3
20260507193320 61 41 3.0 1.0 0.00 0.00 0.00 1013.0
20260507192321 62 63 2.0 3.0 0.00 0.00 0.00 1012.8
20260507191321 62 80 3.0 3.0 0.00 0.00 0.00 1012.7
20260507190324 62 127 3.0 3.0 0.00 0.00 0.00 1012.7
20260507185312 62 134 2.0 1.0 0.00 0.00 0.00 1012.5
20260507184315 63 138 4.0 3.0 0.00 0.00 0.00 1012.3
20260507183312 63 107 3.0 5.0 0.00 0.00 0.00 1012.2
20260507182308 64 138 3.0 5.0 0.00 0.00 0.00 1012.1
20260507181311 64 114 7.0 8.0 0.00 0.00 0.00 1011.9
20260507180300 64 145 4.0 4.0 0.00 0.00 0.00 1011.8
20260507175306 64 111 4.0 4.0 0.00 0.00 0.00 1011.7
20260507174255 64 51 6.0 5.0 0.00 0.00 0.00 1011.6
20260507173258 65 121 4.0 5.0 0.00 0.00 0.00 1011.5
20260507172300 65 135 6.0 4.0 0.00 0.00 0.00 1011.5
20260507171300 65 113 6.0 8.0 0.00 0.00 0.00 1011.5
20260507170300 65 128 6.0 7.0 0.00 0.00 0.00 1011.4
20260507165300 66 128 8.0 6.0 0.00 0.00 0.00 1011.4
20260507164302 66 108 6.0 6.0 0.00 0.00 0.00 1011.4
20260507163300 66 141 8.0 4.0 0.00 0.00 0.00 1011.3
20260507162300 66 120 4.0 2.0 0.00 0.00 0.00 1011.2
20260507161300 66 118 8.0 4.0 0.00 0.00 0.00 1011.1
20260507160303 66 148 6.0 8.0 0.00 0.00 0.00 1011.2
20260507155305 67 115 7.0 9.0 0.00 0.00 0.00 1011.3
20260507154300 66 152 7.0 6.0 0.00 0.00 0.00 1011.3
20260507153301 66 139 10.0 6.0 0.00 0.00 0.00 1011.3
20260507152246 68 152 7.0 8.0 0.00 0.00 0.00 1011.3
20260507151247 67 191 7.0 10.0 0.00 0.00 0.00 1011.3
20260507150249 68 218 10.0 10.0 0.00 0.00 0.00 1011.3
20260507145247 67 167 8.0 9.0 0.00 0.00 0.00 1011.2
20260507144247 67 115 11.0 6.0 0.00 0.00 0.00 1011.5
20260507143242 69 150 7.0 9.0 0.00 0.00 0.00 1011.6
20260507142242 68 124 10.0 9.0 0.00 0.00 0.00 1011.7
20260507141239 68 98 8.0 9.0 0.00 0.00 0.00 1011.8
20260507140242 67 179 12.0 7.0 0.00 0.00 0.00 1011.8
20260507135244 69 191 6.0 8.0 0.00 0.00 0.00 1012.1
20260507134243 69 166 8.0 6.0 0.00 0.00 0.00 1012.0
20260507133246 68 129 9.0 7.0 0.00 0.00 0.00 1012.2
20260507132248 69 141 9.0 5.0 0.00 0.00 0.00 1012.2
20260507131245 68 149 7.0 8.0 0.00 0.00 0.00 1012.2
20260507130242 68 136 9.0 4.0 0.00 0.00 0.00 1012.3
20260507125245 69 142 8.0 14.0 0.00 0.00 0.00 1012.5
20260507124247 69 160 9.0 9.0 0.00 0.00 0.00 1012.6
20260507123246 69 136 10.0 9.0 0.00 0.00 0.00 1012.5
20260507122249 69 176 10.0 6.0 0.00 0.00 0.00 1012.6
20260507121247 69 124 11.0 8.0 0.00 0.00 0.00 1012.6
20260507120250 70 153 8.0 11.0 0.00 0.00 0.00 1012.7
20260507115247 71 127 6.0 7.0 0.00 0.00 0.00 1012.7
20260507114250 70 183 6.0 7.0 0.00 0.00 0.00 1012.8
20260507113244 70 136 7.0 5.0 0.00 0.00 0.00 1012.8
20260507112241 69 114 8.0 5.0 0.00 0.00 0.00 1013.1
20260507111241 68 180 8.0 7.0 0.00 0.00 0.00 1013.2
20260507110243 68 203 6.0 10.0 0.00 0.00 0.00 1013.4
20260507105243 67 18 0.0 2.0 0.00 0.00 0.00 1013.4
20260507104240 68 114 7.0 7.0 0.00 0.00 0.00 1013.5
20260507103241 67 195 3.0 5.0 0.00 0.00 0.00 1013.7
20260507102241 68 136 5.0 4.0 0.00 0.00 0.00 1013.5
20260507101242 67 149 6.0 7.0 0.00 0.00 0.00 1013.9
20260507100245 65 135 8.0 5.0 0.00 0.00 0.00 1014.0
20260507095245 65 73 1.0 1.0 0.00 0.00 0.00 1013.9
20260507094248 66 120 6.0 3.0 0.00 0.00 0.00 1014.0
20260507093242 64 45 3.0 2.0 0.00 0.00 0.00 1014.2
20260507092240 65 188 5.0 3.0 0.00 0.00 0.00 1014.1
20260507091240 64 208 5.0 5.0 0.00 0.00 0.00 1014.2
20260507090243 63 82 2.0 1.0 0.00 0.00 0.00 1013.9
20260507085245 62 195 3.0 3.0 0.00 0.00 0.00 1013.9
20260507084248 62 187 2.0 4.0 0.00 0.00 0.00 1014.1
20260507083250 62 156 3.0 5.0 0.00 0.00 0.00 1014.0
20260507082247 63 174 3.0 2.0 0.00 0.00 0.00 1014.1
20260507081243 62 165 1.0 0.0 0.00 0.00 0.00 1014.2
20260507080245 61 150 0.0 0.0 0.00 0.00 0.00 1014.2
20260507075241 60 167 0.0 0.0 0.00 0.00 0.00 1014.3
20260507074241 59 243 2.0 1.0 0.00 0.00 0.00 1014.5
20260507073242 57 322 0.0 0.0 0.00 0.00 0.00 1014.5
20260507072245 57 322 0.0 0.0 0.00 0.00 0.00 1014.5
20260507071242 55 328 3.0 4.0 0.00 0.00 0.00 1014.6
20260507070244 54 8 3.0 1.0 0.00 0.00 0.00 1014.5
20260507065241 54 304 2.0 2.0 0.00 0.00 0.00 1014.4
20260507064244 54 335 1.0 1.0 0.00 0.00 0.00 1014.3
20260507063243 54 111 0.0 0.0 0.00 0.00 0.00 1014.2
20260507062246 53 134 3.0 3.0 0.00 0.00 0.00 1014.0
20260507061248 54 83 1.0 0.0 0.00 0.00 0.00 1013.9
20260507060246 53 49 0.0 1.0 0.00 0.00 0.00 1013.9
20260507055241 52 357 5.0 2.0 0.00 0.00 0.00 1013.8
20260507054242 52 41 0.0 0.0 0.00 0.00 0.00 1013.6
20260507053243 51 41 0.0 0.0 0.00 0.00 0.00 1013.6
20260507052245 51 350 3.0 4.0 0.00 0.00 0.00 1013.5
20260507051242 50 340 3.0 4.0 0.00 0.00 0.00 1013.6
20260507050244 50 107 0.0 0.0 0.00 0.00 0.00 1013.5
20260507045242 50 107 0.0 0.0 0.00 0.00 0.00 1013.5
20260507044241 51 293 0.0 0.0 0.00 0.00 0.00 1013.5
20260507043243 51 293 0.0 0.0 0.00 0.00 0.00 1013.5
20260507042245 51 288 4.0 0.0 0.00 0.00 0.00 1013.4
20260507041241 51 322 0.0 0.0 0.00 0.00 0.00 1013.4
20260507040244 51 3 0.0 0.0 0.00 0.00 0.00 1013.5
20260507035246 51 312 5.0 5.0 0.00 0.00 0.00 1013.5
20260507034243 51 314 5.0 3.0 0.00 0.00 0.00 1013.4
20260507033246 51 305 4.0 4.0 0.00 0.00 0.00 1013.5
20260507032244 51 34 0.0 0.0 0.00 0.00 0.00 1013.6
20260507031247 51 34 0.0 0.0 0.00 0.00 0.00 1013.6
20260507030247 50 121 3.0 2.0 0.00 0.00 0.00 1013.6
20260507025249 52 163 0.0 0.0 0.00 0.00 0.00 1013.5
20260507024252 52 163 0.0 0.0 0.00 0.00 0.00 1013.4
20260507023249 52 163 0.0 0.0 0.00 0.00 0.00 1013.4
20260507022245 52 163 0.0 0.0 0.00 0.00 0.00 1013.3
20260507021247 53 194 0.0 0.0 0.00 0.00 0.00 1013.3
20260507020241 52 194 0.0 0.0 0.00 0.00 0.00 1013.3
20260507015243 53 194 0.0 0.0 0.00 0.00 0.00 1013.3
20260507014242 53 194 0.0 0.0 0.00 0.00 0.00 1013.5
20260507013245 53 194 0.0 0.0 0.00 0.00 0.00 1013.5
20260507012242 53 194 0.0 0.0 0.00 0.00 0.00 1013.4
20260507011245 53 194 0.0 0.0 0.00 0.00 0.00 1013.4
20260507010247 53 194 0.0 0.0 0.00 0.00 0.00 1013.4
20260507005245 53 194 0.0 0.0 0.00 0.00 0.00 1013.5
20260507004247 52 194 0.0 0.0 0.00 0.00 0.00 1013.6
20260507003249 53 194 0.0 0.0 0.00 0.00 0.00 1013.7
20260507002251 54 194 0.0 0.0 0.00 0.00 0.00 1013.6
20260507001242 53 194 0.0 0.0 0.00 0.00 0.00 1013.8
20260507000241 54 194 0.0 0.0 0.00 0.00 0.00 1013.8
20260506235243 54 194 0.0 0.0 0.00 0.00 0.00 1013.6
20260506234241 54 193 3.0 2.0 0.00 0.00 0.00 1013.7
20260506233241 55 207 0.0 0.0 0.00 0.00 0.00 1013.7
20260506232242 55 207 0.0 0.0 0.00 0.00 0.00 1013.7
20260506231244 55 207 0.0 0.0 0.00 0.00 0.00 1013.7
20260506230241 56 217 0.0 0.0 0.00 0.00 0.00 1013.7
20260506225241 56 217 0.0 0.0 0.00 0.00 0.00 1013.6
20260506224244 56 217 0.0 0.0 0.00 0.00 0.00 1013.5
20260506223246 57 217 0.0 0.0 0.00 0.00 0.00 1013.5
20260506222244 56 217 0.0 0.0 0.00 0.00 0.00 1013.5
20260506221246 57 217 0.0 0.0 0.00 0.00 0.00 1013.5
20260506220244 58 217 0.0 0.0 0.00 0.00 0.00 1013.4
20260506215240 58 217 0.0 0.0 0.00 0.17 0.00 1013.4
20260506214243 58 217 0.0 0.0 0.00 0.17 0.00 1013.4
20260506213241 58 217 0.0 0.0 0.00 0.17 0.00 1013.4
20260506212241 58 217 0.0 0.0 0.00 0.17 0.00 1013.4
20260506211241 59 217 0.0 0.0 0.00 0.17 0.00 1013.3
20260506210242 59 165 2.0 2.0 0.00 0.17 0.00 1013.2
20260506205244 60 115 2.0 2.0 0.00 0.17 0.00 1013.1
20260506204241 59 37 0.0 0.0 0.00 0.17 0.00 1013.0
20260506203242 59 35 2.0 1.0 0.00 0.17 0.00 1012.8